[[{"header":{"parameterUnit":"m.s-1","parameterCategory":1,"la1":30.2991,"la2":30.254,"lo1":-89.0895,"lo2":-89.0444,"dy":0.0017,"dx":0.0017,"nx":28,"ny":28,"refTime":"2024-10-02T03:00:00:Z","depth":0,"parameterNumber":2,"parameterNumberName":"U-component_of_WINDS"},"data":[0,0,0,0,0,0,0,0,0,0,0,0,0,0,0,0,0,0,0,0,0,0,0,0,0,0,0,0,0,0,0,0,0,0,0,0,0,0,0,0,0,0,0,0,0,0,0,0,0,0,0,0,0,0,0,0,0,0,1.216,1.216,0,1.2217,1.2218,1.2219,1.2262,1.2263,1.2263,1.2263,1.2319,1.232,1.2321,0,0,0,0,0,0,0,0,0,0,0,0,0,1.2083,1.2084,1.216,1.216,1.2161,1.2217,1.2218,1.2219,1.2262,1.2263,1.2263,1.2264,1.2318,1.232,1.2321,0,0,0,0,0,0,0,0,0,0,0,0,0,1.2126,1.2084,1.216,1.219,1.2193,1.2217,1.2218,1.2219,1.2262,1.2263,1.2263,1.2264,1.2318,1.232,1.2321,1.2319,0,0,1.2326,1.2327,0,0,0,0,0,0,0,0,1.2123,1.2129,1.2184,1.2188,1.2191,1.2233,1.2211,1.2253,1.2262,1.2236,1.2263,1.2264,1.229,1.2294,1.2303,1.2322,1.2324,1.2326,1.2327,1.2328,1.2329,0,0,0,0,0,0,0,1.212,1.2126,1.2182,1.2185,1.2189,1.2199,1.2206,1.2219,1.2258,1.2238,1.2241,1.2248,1.2292,1.2301,1.2305,1.2325,1.2326,1.2328,1.2329,1.233,1.2344,1.2343,0,0,0,0,0,0,1.2113,1.2124,1.2181,1.2184,1.2158,1.22,1.2207,1.2219,1.2258,1.2265,1.2247,1.225,1.2298,1.2303,1.2307,1.2306,1.2328,1.233,1.2331,1.2344,1.2343,1.2343,0,0,0,0,0,0,1.2111,1.2118,1.2178,1.2155,1.2163,1.22,1.2213,1.222,1.223,1.2265,1.2272,1.225,1.2299,1.2304,1.2316,1.2308,1.233,1.2332,1.2345,1.2344,1.2343,1.2305,0,0,0,0,0,0,1.2109,1.2117,1.2118,1.2155,1.2164,1.2187,1.2213,1.2221,1.2233,1.2237,1.227,1.2276,1.23,1.2313,1.2317,1.2311,1.2333,1.2346,1.2345,1.2343,1.2307,1.2302,1.2299,0,0,0,0,0,1.2106,1.2104,1.2117,1.2124,1.2166,1.2187,1.2192,1.2221,1.2232,1.2232,1.2255,1.2275,1.2309,1.2314,1.2319,1.2313,1.2346,1.2345,1.2344,1.2308,1.2303,1.2299,0,0,0,0,0,0,1.2064,1.2109,1.2125,1.2135,1.2157,1.2194,1.2195,1.2215,1.2233,1.2235,1.2269,1.2276,1.2283,1.23,1.2304,1.2313,1.233,1.233,1.2301,1.2297,1.2293,1.2288,1.2335,0,0,0,0,0,1.2056,1.2071,1.2109,1.2114,1.2124,1.2158,1.2168,1.2188,1.2212,1.2221,1.2244,1.2265,1.2281,1.229,1.2306,1.231,1.2316,1.2308,1.2304,1.2301,1.2299,1.2301,1.2297,1.2338,1.2338,1.2338,0,0,1.204,1.2066,1.2073,1.2106,1.2126,1.2138,1.2165,1.2178,1.2187,1.2222,1.2234,1.2252,1.2278,1.2285,1.2289,1.2299,1.229,1.2299,1.2296,1.2297,1.2299,1.2295,1.2291,1.2337,1.2338,1.2338,0,0,1.2015,1.2038,1.2044,1.2063,1.2092,1.2114,1.2116,1.215,1.2164,1.2177,1.2203,1.2214,1.224,1.2257,1.2269,1.225,1.2269,1.2255,1.2234,1.2235,1.2231,1.2229,1.222,1.2217,1.2254,1.2253,1.2253,0,1.1991,1.2012,1.2044,1.2055,1.2068,1.2102,1.2107,1.2124,1.2156,1.2164,1.2174,1.2207,1.2227,1.2237,1.2233,1.2242,1.2243,1.225,1.223,1.2227,1.2225,1.2217,1.2214,1.2251,1.2252,1.2252,1.2252,0,1.1979,1.1994,1.1995,1.2026,1.204,1.2047,1.2079,1.2089,1.2107,1.2128,1.214,1.2165,1.2186,1.219,1.2208,1.2203,1.2208,1.2224,1.2241,1.2218,1.2212,1.2209,1.2249,1.2249,1.225,1.225,0,0,1.193,1.1979,1.1979,1.1993,1.2027,1.2038,1.2047,1.2069,1.2075,1.2097,1.2103,1.2125,1.2139,1.2153,1.2173,1.2174,1.2156,1.219,1.2191,1.2181,1.2149,1.2136,1.2132,1.2169,1.2168,1.2168,1.2146,0,1.191,1.1929,1.1958,1.1966,1.1979,1.2011,1.2018,1.2039,1.2059,1.2071,1.2092,1.2106,1.2125,1.2133,1.2136,1.2157,1.2149,1.216,1.2174,1.2174,1.2165,1.2129,1.2115,1.2093,1.2144,1.2144,1.2143,0,1.1889,1.1909,1.1919,1.1952,1.1958,1.1964,1.1986,1.1998,1.2022,1.2036,1.2051,1.2073,1.2082,1.21,1.2112,1.2118,1.2126,1.2137,1.2137,1.2138,1.2156,1.2127,1.2087,1.2083,1.214,1.214,1.2141,0,1.1849,1.1879,1.1889,1.19,1.1939,1.1942,1.1958,1.1983,1.1994,1.2012,1.2019,1.2038,1.2048,1.2062,1.2088,1.2098,1.2096,1.2116,1.2106,1.2106,1.2103,1.2103,1.2062,1.2111,1.2111,1.2111,1.2111,0,1.1823,1.1827,1.1871,1.1877,1.1882,1.1915,1.1919,1.1938,1.1959,1.1968,1.1997,1.2004,1.2039,1.205,1.2071,1.2076,1.2081,1.2091,1.2096,1.2088,1.2086,1.2092,1.2093,1.211,1.211,1.2111,1.2111,0,1.1779,1.1809,1.1821,1.1857,1.1866,1.1868,1.1899,1.1904,1.1926,1.1936,1.194,1.1973,1.1987,1.2015,1.2037,1.2051,1.2051,1.2061,1.2043,1.2046,1.2034,1.2033,1.1994,1.1989,1.2042,1.2042,1.2042,0,1.176,1.1764,1.18,1.1809,1.1824,1.1837,1.1849,1.1881,1.1891,1.1918,1.192,1.1937,1.1952,1.1973,1.1997,1.2014,1.2023,1.2008,1.2026,1.2016,1.2021,1.2019,1.2019,1.2003,1.2003,1.2002,1.2002,0,1.1721,1.1735,1.1751,1.1772,1.1785,1.1802,1.1821,1.1826,1.1862,1.1872,1.1887,1.1899,1.1921,1.1936,1.1956,1.1971,1.1991,1.1996,1.1994,1.1985,1.1973,1.1977,1.203,1.1996,1.1997,1.1997,1.1998,1.1998,1.1688,1.1692,1.1718,1.1734,1.1752,1.1769,1.1776,1.1798,1.1812,1.1833,1.1851,1.1864,1.1887,1.1916,1.193,1.194,1.195,1.1948,1.1947,1.1945,1.1941,1.1973,1.1944,1.1944,1.1944,1.1944,1.1944,0,1.1649,1.1667,1.1682,1.1707,1.172,1.174,1.1761,1.177,1.1781,1.1801,1.1816,1.1832,1.1847,1.1873,1.189,1.1893,1.1902,1.1896,1.1895,1.1897,1.1932,1.1931,1.1888,1.1888,1.1888,1.1888,1.1888,1.1888,1.163,1.1638,1.1655,1.1672,1.169,1.1704,1.1715,1.173,1.1746,1.1763,1.1776,1.1794,1.1816,1.1834,1.1848,1.1855,1.1859,1.1849,1.1859,1.189,1.1895,1.19,1.1899,1.185,1.185,1.1824,1.1823,1.1823]},{"header":{"parameterUnit":"m.s-1","parameterCategory":1,"la1":30.2991,"la2":30.254,"lo1":-89.0895,"lo2":-89.0444,"dy":0.0017,"dx":0.0017,"nx":28,"ny":28,"refTime":"2024-10-02T03:00:00:Z","depth":0,"parameterNumber":3,"parameterNumberName":"V-component_of_WINDS"},"data":[0,0,0,0,0,0,0,0,0,0,0,0,0,0,0,0,0,0,0,0,0,0,0,0,0,0,0,0,0,0,0,0,0,0,0,0,0,0,0,0,0,0,0,0,0,0,0,0,0,0,0,0,0,0,0,0,0,0,-0.1035,-0.1035,0,-0.1079,-0.1079,-0.108,-0.1113,-0.1114,-0.1114,-0.1114,-0.1159,-0.1159,-0.116,0,0,0,0,0,0,0,0,0,0,0,0,0,-0.0979,-0.098,-0.1035,-0.1036,-0.1036,-0.1079,-0.1079,-0.108,-0.1113,-0.1114,-0.1114,-0.1115,-0.1158,-0.1159,-0.116,0,0,0,0,0,0,0,0,0,0,0,0,0,-0.1011,-0.0981,-0.1035,-0.1058,-0.106,-0.1079,-0.1079,-0.108,-0.1113,-0.1114,-0.1114,-0.1115,-0.1158,-0.1159,-0.1161,-0.1159,0,0,-0.1165,-0.1165,0,0,0,0,0,0,0,0,-0.101,-0.1013,-0.1054,-0.1056,-0.1059,-0.1091,-0.1076,-0.1107,-0.1113,-0.1093,-0.1114,-0.1115,-0.1136,-0.1139,-0.1146,-0.1161,-0.1163,-0.1165,-0.1166,-0.1166,-0.1166,0,0,0,0,0,0,0,-0.1007,-0.1012,-0.1052,-0.1055,-0.1058,-0.1066,-0.1071,-0.1082,-0.1111,-0.1095,-0.1098,-0.1102,-0.1137,-0.1145,-0.1147,-0.1164,-0.1165,-0.1166,-0.1167,-0.1167,-0.1179,-0.1179,0,0,0,0,0,0,-0.1002,-0.101,-0.1051,-0.1054,-0.1035,-0.1066,-0.1072,-0.108,-0.1111,-0.1116,-0.1102,-0.1104,-0.1142,-0.1146,-0.1149,-0.1149,-0.1166,-0.1167,-0.1168,-0.118,-0.1179,-0.1179,0,0,0,0,0,0,-0.1,-0.1005,-0.1049,-0.1032,-0.1039,-0.1067,-0.1076,-0.1081,-0.1089,-0.1116,-0.1122,-0.1104,-0.1143,-0.1147,-0.1156,-0.1151,-0.1168,-0.1169,-0.118,-0.118,-0.1179,-0.1149,0,0,0,0,0,0,-0.0999,-0.1004,-0.1004,-0.1032,-0.1039,-0.1056,-0.1076,-0.1082,-0.1091,-0.1094,-0.112,-0.1125,-0.1143,-0.1154,-0.1158,-0.1153,-0.117,-0.1181,-0.118,-0.1179,-0.1151,-0.1148,-0.1145,0,0,0,0,0,-0.0996,-0.0994,-0.1004,-0.1009,-0.104,-0.1056,-0.106,-0.1081,-0.109,-0.109,-0.1108,-0.1124,-0.1151,-0.1155,-0.1159,-0.1155,-0.1181,-0.118,-0.1179,-0.1152,-0.1148,-0.1145,0,0,0,0,0,0,-0.0965,-0.0998,-0.101,-0.1016,-0.1033,-0.1061,-0.1062,-0.1077,-0.1091,-0.1093,-0.1119,-0.1125,-0.1131,-0.1144,-0.1147,-0.1155,-0.1168,-0.1168,-0.1146,-0.1143,-0.114,-0.1136,-0.1171,0,0,0,0,0,-0.0959,-0.0969,-0.0997,-0.1,-0.1008,-0.1033,-0.1041,-0.1056,-0.1074,-0.1082,-0.11,-0.1117,-0.1129,-0.1137,-0.115,-0.1153,-0.1159,-0.1152,-0.1149,-0.1146,-0.1146,-0.1148,-0.1145,-0.1175,-0.1175,-0.1175,0,0,-0.0946,-0.0966,-0.097,-0.0995,-0.1009,-0.1019,-0.1039,-0.1048,-0.1056,-0.1083,-0.1093,-0.1107,-0.1127,-0.1133,-0.1137,-0.1144,-0.1139,-0.1145,-0.1143,-0.1144,-0.1147,-0.1144,-0.1141,-0.1175,-0.1175,-0.1175,0,0,-0.0928,-0.0944,-0.0948,-0.0962,-0.0984,-0.1001,-0.1001,-0.1028,-0.1038,-0.1048,-0.1069,-0.1077,-0.1098,-0.1112,-0.1121,-0.1107,-0.1122,-0.1111,-0.1095,-0.1097,-0.1095,-0.1093,-0.1087,-0.1085,-0.111,-0.111,-0.111,0,-0.0909,-0.0925,-0.0948,-0.0956,-0.0966,-0.0991,-0.0995,-0.1008,-0.1032,-0.1038,-0.1046,-0.1073,-0.1088,-0.1097,-0.1094,-0.1101,-0.1103,-0.1108,-0.1093,-0.1091,-0.109,-0.1085,-0.1083,-0.1109,-0.1109,-0.1109,-0.1109,0,-0.0901,-0.0911,-0.0912,-0.0935,-0.0945,-0.0951,-0.0975,-0.0982,-0.0996,-0.1012,-0.1021,-0.1041,-0.1058,-0.1061,-0.1075,-0.1072,-0.1076,-0.1088,-0.1102,-0.1085,-0.1081,-0.1079,-0.1106,-0.1107,-0.1107,-0.1108,0,0,-0.0864,-0.09,-0.09,-0.091,-0.0936,-0.0944,-0.0951,-0.0968,-0.0973,-0.0989,-0.0995,-0.1012,-0.1023,-0.1034,-0.105,-0.1051,-0.1038,-0.1063,-0.1064,-0.1057,-0.1036,-0.1026,-0.1023,-0.1048,-0.1048,-0.1048,-0.1034,0,-0.0849,-0.0863,-0.0884,-0.0891,-0.0901,-0.0924,-0.093,-0.0946,-0.0961,-0.0971,-0.0987,-0.0999,-0.1013,-0.1019,-0.1022,-0.1039,-0.1034,-0.1041,-0.1054,-0.1054,-0.1048,-0.1021,-0.1012,-0.0997,-0.1032,-0.1032,-0.1032,0,-0.0834,-0.0849,-0.0857,-0.0881,-0.0886,-0.0891,-0.0908,-0.0917,-0.0935,-0.0946,-0.0958,-0.0975,-0.0983,-0.0995,-0.1007,-0.101,-0.1017,-0.1026,-0.1026,-0.1028,-0.1042,-0.1022,-0.0993,-0.0991,-0.103,-0.103,-0.103,0,-0.0806,-0.0828,-0.0835,-0.0844,-0.0872,-0.0875,-0.0887,-0.0906,-0.0915,-0.0929,-0.0935,-0.095,-0.0958,-0.097,-0.099,-0.0997,-0.0999,-0.1013,-0.1007,-0.1007,-0.1006,-0.1006,-0.0977,-0.1011,-0.1011,-0.1011,-0.1011,0,-0.0788,-0.0791,-0.0823,-0.0827,-0.0832,-0.0856,-0.086,-0.0874,-0.089,-0.0898,-0.0919,-0.0926,-0.0952,-0.0962,-0.0978,-0.0984,-0.0988,-0.0996,-0.1,-0.0994,-0.0993,-0.0999,-0.1,-0.101,-0.1011,-0.1011,-0.1011,0,-0.0757,-0.0778,-0.0788,-0.0814,-0.0821,-0.0823,-0.0845,-0.085,-0.0866,-0.0875,-0.0879,-0.0904,-0.0916,-0.0937,-0.0955,-0.0966,-0.0969,-0.0976,-0.0963,-0.0965,-0.0958,-0.0958,-0.0932,-0.0929,-0.0964,-0.0964,-0.0964,0,-0.0744,-0.0747,-0.0774,-0.078,-0.0791,-0.0801,-0.081,-0.0834,-0.0842,-0.0863,-0.0865,-0.0879,-0.0891,-0.0909,-0.0928,-0.0942,-0.095,-0.094,-0.0952,-0.0946,-0.0949,-0.0949,-0.0949,-0.0937,-0.0936,-0.0936,-0.0936,0,-0.0717,-0.0728,-0.074,-0.0755,-0.0765,-0.0778,-0.0792,-0.0796,-0.0823,-0.0831,-0.0843,-0.0853,-0.0871,-0.0884,-0.0901,-0.0913,-0.0928,-0.0932,-0.0931,-0.0924,-0.0916,-0.092,-0.0955,-0.0932,-0.0932,-0.0933,-0.0933,-0.0933,-0.0695,-0.0699,-0.0718,-0.073,-0.0743,-0.0756,-0.0762,-0.0778,-0.0789,-0.0806,-0.0819,-0.083,-0.0848,-0.0872,-0.0883,-0.0892,-0.09,-0.0899,-0.0898,-0.0898,-0.0895,-0.0915,-0.0895,-0.0896,-0.0896,-0.0896,-0.0896,0,-0.0669,-0.0683,-0.0694,-0.0713,-0.0722,-0.0736,-0.0753,-0.076,-0.0769,-0.0785,-0.0796,-0.081,-0.0823,-0.0843,-0.0858,-0.0861,-0.0868,-0.0864,-0.0864,-0.0866,-0.0888,-0.0887,-0.0857,-0.0857,-0.0857,-0.0857,-0.0857,-0.0857,-0.0657,-0.0664,-0.0676,-0.069,-0.0704,-0.0715,-0.0723,-0.0734,-0.0747,-0.0762,-0.0772,-0.0786,-0.0803,-0.0818,-0.083,-0.0836,-0.084,-0.0833,-0.0841,-0.0861,-0.0864,-0.0868,-0.0867,-0.0834,-0.0834,-0.0818,-0.0818,-0.0818]}]]